Location: Gazon
(48.1318°N, 1.2708°W)
Time: 22:34:42
(UTC+00:00)

Cosmos 1707 - Pass Details

Date: 18 September 2020
Orbit: 515 x 530 km, 82.5° (Epoch: 24 October)

Event Time Altitude Azimuth Distance (km) Brightness Sun altitude
Rises 19:15:25 0° 352° (N) 2,654 6.6 -11.5°
Reaches altitude 10° 19:17:35 10° 356° (N) 1,759 5.7 -11.9°
Maximum altitude 19:21:25 66° 79° (ENE) 570 2.6 -12.5°
Drops below altitude 10° 19:25:13 10° 162° (SSE) 1,740 5.0 -13.1°
Enters shadow 19:25:55 - 163° (SSE) 2,030 5.4 -13.2°
